Greenville, AL

7:59 AM CDT on May 26, 2018 (GMT -0500)
Greenville Municipal

Weather History for KPRN - December, 2013

Change the Weather History Date:

Friday, December 27, 2013

  Actual Average Record
Temperature  
Mean Temperature 47 °F -  
Max Temperature 57 °F 58 °F 82 °F (1987)
Min Temperature 37 °F 36 °F 19 °F (1935)
Degree Days  
Heating Degree Days 18    
Moisture  
Dew Point 32 °F    
Average Humidity 60    
Maximum Humidity 79    
Minimum Humidity 36    
Precipitation  
Precipitation 0.00 in - - ()
Sea Level Pressure  
Sea Level Pressure 30.35 in    
Wind  
Wind Speed 6 mph (NE)    
Max Wind Speed 9 mph    
Max Gust Speed -    
Visibility 10 miles    
Events      
Averages and records for this station are not official NWS values.
T = Trace of Precipitation, MM = Missing Value Source: NWS Daily Summary

Daily Weather History Graph

Daily Weather History Graph

Search for Another Location

Airport or City:

Astronomy

Dec. 27, 2013 Rise Set
Actual Time 6:45 AM CST 4:50 PM CST
Civil Twilight 6:18 AM CST 5:17 PM CST
Nautical Twilight 5:47 AM CST 5:47 PM CST
Astronomical Twilight 5:18 AM CST 6:17 PM CST
Moon 1:28 AM CST (12/27) 12:50 PM CST (12/27)
Length of Visible Light 10h 58m
Length of Day
10h 04m
Waning Crescent, 28% of the Moon is Illuminated
Dec 27
Waning Crescent
Jan 1
New
Jan 7
First Quarter
Jan 15
Full
Jan 23
Last Quarter

Hourly Weather History & Observations

Time (CST) Temp. Windchill Dew Point Humidity Pressure Visibility Wind Dir Wind Speed Gust Speed Precip Events Conditions
12:56 AM 41.0 °F 37.1 °F 32.0 °F 70% 30.31 in 10.0 mi North 5.8 mph - N/A   Clear
1:56 AM 39.9 °F 35.8 °F 30.9 °F 70% 30.32 in 10.0 mi North 5.8 mph - N/A   Clear
3:56 AM 37.9 °F 32.7 °F 30.9 °F 76% 30.34 in 10.0 mi North 6.9 mph - N/A   Clear
4:56 AM 37.0 °F 32.4 °F 30.9 °F 79% 30.35 in 10.0 mi North 5.8 mph - N/A   Clear
5:56 AM 37.0 °F 33.3 °F 30.9 °F 79% 30.37 in 10.0 mi North 4.6 mph - N/A   Clear
6:56 AM 37.0 °F 32.4 °F 30.9 °F 79% 30.38 in 10.0 mi North 5.8 mph - N/A   Clear
7:56 AM 39.0 °F 35.7 °F 30.9 °F 73% 30.39 in 10.0 mi North 4.6 mph - N/A   Clear
8:56 AM 44.1 °F 40.1 °F 32.0 °F 63% 30.41 in 10.0 mi NE 6.9 mph - N/A   Clear
9:56 AM 46.9 °F - 30.9 °F 54% 30.40 in 10.0 mi NE 9.2 mph - N/A   Clear
10:56 AM 51.1 °F - 30.0 °F 44% 30.39 in 10.0 mi NE 6.9 mph - N/A   Clear
11:56 AM 54.0 °F - 28.9 °F 38% 30.35 in 10.0 mi East 6.9 mph - N/A   Clear
12:56 PM 55.0 °F - 30.0 °F 38% 30.33 in 10.0 mi NNE 6.9 mph - N/A   Clear
1:56 PM 57.0 °F - 30.0 °F 36% 30.33 in 10.0 mi NE 5.8 mph - N/A   Clear
2:56 PM 55.9 °F - 32.0 °F 40% 30.31 in 10.0 mi NE 6.9 mph - N/A   Clear
3:56 PM 55.9 °F - 32.0 °F 40% 30.32 in 10.0 mi ENE 6.9 mph - N/A   Clear
4:56 PM 51.1 °F - 33.1 °F 50% 30.34 in 10.0 mi Calm Calm - N/A   Clear
5:56 PM 48.9 °F - 36.0 °F 61% 30.34 in 10.0 mi Calm Calm - N/A   Clear
6:56 PM 46.0 °F 44.8 °F 37.0 °F 71% 30.35 in 10.0 mi NNE 3.5 mph - N/A   Clear
7:56 PM 45.0 °F 42.6 °F 37.0 °F 74% 30.36 in 10.0 mi NE 4.6 mph - N/A   Clear
8:56 PM 46.0 °F 44.8 °F 35.1 °F 66% 30.35 in 10.0 mi NNE 3.5 mph - N/A   Clear
9:56 PM 46.0 °F 43.1 °F 34.0 °F 63% 30.33 in 10.0 mi ENE 5.8 mph - N/A   Clear
10:56 PM 46.9 °F - 33.1 °F 59% 30.32 in 10.0 mi East 5.8 mph - N/A   Clear
11:56 PM 48.0 °F - 33.1 °F 56% 30.32 in 10.0 mi East 4.6 mph - N/A   Partly Cloudy